Regional Weather Roundup
Issued by NWS

Home | Current Version | Previous Version | Graphics & Text | Print | Product List | Glossary On
Versions: 1 2 3 4 5 6 7 8 9 10 11 12 13 14 15 16 17 18 19 20 21 22 23 24 25 26 27 28 29 30 31 32 33 34 35 36 37 38 39 40 41 42 43 44 45 46 47 48 49 50
000
ASUS43 KLSX 272159
RWRMO

WEATHER SUMMARY FOR MISSOURI
NATIONAL WEATHER SERVICE SPRINGFIELD MO
400 PM CST THU NOV 27 2014

NOTE: "FAIR" INDICATES FEW OR NO CLOUDS BELOW 12,000 FEET WITH NO
       SIGNIFICANT WEATHER AND/OR OBSTRUCTIONS TO VISIBILITY.
       CURRENT SKY AND/OR WEATHER CONDITIONS ARE NOT AVAILABLE FOR
       CHILLICOTHE AND FARMINGTON.

MOZ001>031-035>038-043-044-053-054-272300-
...NORTHERN AND WESTERN MISSOURI...

CITY           SKY/WX    TMP DP  RH WIND       PRES   REMARKS
KANSAS CTY INT PTCLDY    35  21  56 SE9       30.38F WCI  28
KANSAS C DTWN  CLEAR     36  21  54 E12       30.39F WCI  28
LEE`S SUMMIT   CLEAR     37  20  50 S6        30.40F
ST JOSEPH      CLEAR     32  18  56 E10       30.41F WCI  24
CHILLICOTHE      N/A     30  16  56 CALM      30.45F
KIRKSVILLE     PTCLDY    24  15  68 NE6       30.45S WCI  17

$$
MOZ066>068-077>081-088>096-101>105-272300-
...SOUTHWEST MISSOURI...

CITY           SKY/WX    TMP DP  RH WIND       PRES   REMARKS
SPRINGFIELD    CLEAR     41  19  41 VRB5      30.42F
JOPLIN         CLEAR     43  18  36 SE3       30.42F

$$
MOZ032>034-039>042-045>050-055>058-069>072-272300-
...CENTRAL MISSOURI...

CITY           SKY/WX    TMP DP  RH WIND       PRES   REMARKS
COLUMBIA       CLOUDY    34  23  64 W6        30.44S WCI  29
JEFFERSON CITY CLOUDY    35  23  61 W5        30.46F
ROLLA          PTCLDY    33  22  63 NW6       30.42R WCI  28
SEDALIA        CLEAR     36  22  56 CALM      30.45F
OSAGE BEACH    CLEAR     37  19  48 CALM      30.44S

$$
MOZ051-052-059>065-272300-
...EAST CENTRAL MISSOURI...

CITY           SKY/WX    TMP DP  RH WIND       PRES   REMARKS
ST LOUIS INTL  MOCLDY    34  19  54 NW10      30.46R WCI  26
SPIRIT OF STL  CLEAR     35  21  56 NW9       30.45S WCI  28
ST CHARLES     CLEAR     31  18  58 NW13      30.46S WCI  21

$$
MOZ072>076-082>087-097>100-106>115-272300-
...SOUTH CENTRAL AND SOUTHEAST MISSOURI...

CITY           SKY/WX    TMP DP  RH WIND       PRES   REMARKS
CAPE GIRARDEAU PTCLDY    38  27  64 N5        30.46S
FARMINGTON     CLEAR     36  21  55 W7        30.44R WCI  30
POPLAR BLUFF   CLEAR     42  23  46 CALM      30.45S
WEST PLAINS    CLEAR     42  18  37 W7        30.43S

$$



USA.gov is the U.S. government's official web portal to all federal, state and local government web resources and services.